Погода Сумы

Хотите узнать прогноз погоды Сумы? Тогда Вам сюда: Погода Сумы

Поиск расширенной информации на нашем сайте:

Полезная информация:

Новости сайта



02.01.2020
Опубликован Долгосрочный прогноз погоды по городам России и ближнего зарубежья на январь 2020 года.
Карты: Прогноз на январь и февраль 2020 года, Сравнение прогнозируемой аномалии приземной температуры воздуха на январь 2020 года по разным моделям.




Погода Сумы - сегодня

Время (UTC), дата Ветер
(°,м/с) 
Видим.   Явления Облачность Т
(°С)
Тd
(°С)
f(%) Тe
(°С)
Pmin
(гПа)
dP
(гПа)
Po
(мм)
O2
(г/м3)
Тmin Tmax R s Состояние
почвы
09 19.09.20 300 (СЗ) 10 км    3/0 средняя 
[Ac trans]
+13.7 +5.9 59 +13  1018.7  -0.2  748  286           
12 19.09.20 280 (З) 10 км    ясно 
+17.9 +4.5 41 +18  1017.7  -0.7  747  282           
15 19.09.20 280 (З) 10 км    6/0 средняя 
[Ac trans]
+17.7 +6.9 49 +18  1017.1  -0.5  747  281           
18 19.09.20 270 (З) 10 км    ясно 
+13 +4.5 56 +13  1017.9  0.4  747  287    +18.1       
21 19.09.20 280 (З) 10 км    ясно 
+9.1 +4.6 73 +9  1018.1  -0.1  747  291           
00 20.09.20 300 (СЗ) 10 км    ясно 
+7.1 +3.8 80 +8  1018.5  0.2  747  293           
03 20.09.20 тихо ()   10 км    3/0 средняя 
[Ac trans]
+6 +3.9 86 +6  1019.3  0.7  748  294           
06 20.09.20 300 (СЗ) 10 км    ясно 
+9.3 +6.5 83 +9  1020.4  1.3  749  291  +5.6         
09 20.09.20 330 (СЗ) 10 км    4/4 600 м 
[Cu hum]
+14.9 +5.9 55 +14  1020.8  0.9  749  285           
12 20.09.20 320 (СЗ) 10 км    3/3 600 м 
[Cu hum]
+17.1 +4.7 44 +17  1020.9  0.2  749  283           
15 20.09.20 340 (С) 10 км    ясно 
+15.1 +4.6 49 +15  1021.5  0.5  750  286           
18 20.09.20 310 (СЗ) 10 км    ясно 
+9.3 +4.1 70 +10  1023.2  1.2  751  292    +17.3       
21 20.09.20 тихо ()   10 км    ясно 
+6.1 +3 80 +6  1024  0.5  751  296           
00 21.09.20 тихо ()   10 км    ясно 
+3.1 +1.5 89 +3  1024.9  0.6  752  299           
03 21.09.20 тихо ()   10 км    ясно 
+1.9 +0.6 91 +2  1025.2  0.2  752  301           
06 21.09.20 тихо ()   10 км    ясно 
+9.2 +6.2 81 +9  1025  0.4  752  292  +1         
09 21.09.20 280 (З) 10 км    ясно 
+17.1 +3.5 40 +18  1023.7  -0.6  752  284           
12 21.09.20 290 (З) 10 км    4/0 верхняя 
[Ci fib]
+19.8 +3.9 35 +21  1022.2  -1.3  751  281           
15 21.09.20 250 (З) 10 км    6/0 верхняя 
[Ci fib]
+18.8 +3.8 37 +19  1021.3  -1  750  282           
18 21.09.20 240 (ЮЗ) 10 км    ясно 
+12.5 +4.9 60 +13  1022.2  0.4  750  288    +20.1       
21 21.09.20 240 (ЮЗ) 10 км    ясно 
+8.5 +6.1 85 +10  1022.4  -0.1  750  292           
00 22.09.20 тихо ()   10 км    ясно 
+6 +4.1 88 +6  1023  0.4  750  295           
03 22.09.20 170 (Ю) 10 км    ясно 
+3.8 +1.5 85 +5  1023.6  0.4  751  298           
06 22.09.20 150 (ЮВ) 10 км    3/0 верхняя 
[Ci fib]
+10.8 +5.6 70 +12  1023.6  0.6  751  290  +3.4         
09 22.09.20 190 (Ю) 10 км    3/0 верхняя 
[Ci fib]
+20.1 +6.1 40 +20  1022.5  -0.4  751  281           
Время (UTC), дата Ветер
(°,м/с) 
Видим.   Явления Облачность Т
(°С)
Тd
(°С)
f(%) Тe
(°С)
Pmin
(гПа)
dP
(гПа)
Po
(мм)
O2
(г/м3)
Тmin Tmax R s Состояние
почвы

Для получения пояснительной информации подведите курсор к названию столбца.

ПОГОДА Сумы - архив

Всё, что Вы хотите узнать о погоде Сумы - удобно и подробно!

Выберите нужную дату (начиная с 1 января 2019* года) и нажмите кнопку "Найти".
Будут отображены архивные сводки погоды по пункту Сумы, начиная с указанной даты.


Отображать данные в формате CSV (для использования в таблицах Excel)


Внимание! Наш архив погоды предназначен исключительно для личного некоммерческого использования в познавательных целях. Если Вам необходимы официальные справки о состоянии погоды (для производственных, юридических, коммерческих и т.п. целей), обращайтесь в органы Росгидромета.

*Примечание: данная дата относится к архиву по метеостанциям СССР (Россия, СНГ, Балтия).
Архив по метеостанциям Зарубежной Европы и Азии (кроме Китая) хранится 10 дней, по другим регионам земного шара (Китай, Африка, Америка, Австралия, Океания) - 1 день.

Сумы - район местоположения метеостанции


Название, широта, долгота, высота метеостанции:
Сумы 50.9°ш. 34.7°д. 181 м над ур. моря [Украина]

Дополнительная информация

В oтличие oт бoльшинства пoгoдных сайтoв мы публикуем пoдрoбную метеoинфoрмацию в детальнoм прoфессиoнальнoм фoрмате.

Характеристики температуры и влажнoсти вoздуха измеряются на высoте 2 м в тени вдали oт зданий и деревьев.
Скoрoсть ветра измеряется на высoте 10 м (на урoвне рoста челoвека скoрoсть ветра ниже в 1.5-2 раза). Если метеoстанция нахoдится в гoрoде или в лесу, тo скoрoсть ветра занижена на 2-4 м/с пo сравнению с oткрытым местoм. Скoрoсть ветра над акватoриями крупных рек и oзёр, а также на вершинах хoлмoв на 2-5 м/с выше, чем в oбычных услoвиях.
Атмoсфернoе давление в разных тoчках местнoсти мoжет значительнo oтличаться oт давления на метеoстанции, в зависимoсти oт услoвий рельефа (при пoдъёме на 10 м давление пoнижается примернo на 1 мм рт.ст.).